Location: Koslow
(50.3020°N, 18.5663°E)
Time: 23:19:28
(UTC+00:00)

Cosmos 2298 Rocket - Pass Details

Date: 07 June 2020
Orbit: 776 x 784 km, 74.0° (Epoch: 05 July)

Event Time Altitude Azimuth Distance (km) Brightness Sun altitude
Rises 00:08:14 0° 333° (NNW) 3,272 7.9 -14.6°
Reaches altitude 10° 00:10:39 10° 330° (NNW) 2,341 7.1 -14.5°
Maximum altitude 00:15:52 59° 252° (WSW) 896 4.1 -14.2°
Enters shadow 00:19:49 17° 177° (S) 1,866 5.5 -13.9°
